1308614430487,0.695745
1308614490487,0.696241
1308614550487,0.700133
1308614610487,0.691266
1308614670487,0.695597
1308614730487,0.697694
1308614790487,0.699029
1308614850487,0.696150
1308614910487,0.690270
1308614970487,0.699354
1308615030487,0.702699
1308615090487,0.692633
1308615150487,0.699361
1308615210487,0.697388
1308615270487,0.699060
1308615330487,0.691914
1308615390487,0.692586
1308615450487,0.695902
1308615510487,0.689834
1308615570487,0.700449
1308615630487,0.694242
1308615690487,0.694861
1308615750487,0.701721
1308615810487,0.698445
1308615870487,0.697693
1308615930487,0.696069
1308615990487,0.693689
1308616050487,0.696728
1308616110487,0.695292
1308616170487,0.686365
1308616230487,0.691694
1308616290487,0.699307
1308616350487,0.689720
1308616410487,0.693821
1308616470487,0.700121
1308616530487,0.701933
1308616590487,0.697812
1308616650487,0.700877
1308616710487,0.694436
1308616770487,0.691765
1308616830487,0.698313
1308616890487,0.699142
1308616950487,0.694875
1308617010487,0.696035
1308617070487,0.703226
1308617130487,0.704189
1308617190487,0.691954
1308617250487,0.700700
1308617310487,0.686491
1308617370487,0.694863
1308617430487,0.695050
1308617490487,0.691714
1308617550487,0.699137
1308617610487,0.701829
1308617670487,0.691462
1308617730487,0.694915
1308617790487,0.694443
1308617850487,0.697579
1308617910487,0.698554
1308617970487,0.691772
1308618030497,0.699744
1308618090497,0.691728
1308618150497,0.695966
1308618210497,0.694928
1308618270497,0.692889
1308618330497,0.695993
1308618390497,0.698528
1308618450497,0.695319
1308618510497,0.690791
1308618570497,0.694897
1308618630497,0.692808
1308618690497,0.700511
1308618750497,0.695812
1308618810497,0.699562
1308618870497,0.701549
1308618930497,0.698000
1308618990497,0.697834
1308619050497,0.696853
1308619110497,0.696656
1308619170497,0.699795
1308619230497,0.698605
1308619290497,0.698471
1308619350497,0.702877
1308619410497,0.707439
1308619470497,0.701092
1308619530497,0.707633
1308619590497,0.698962
1308619650497,0.704174
1308619710497,0.703383
1308619770497,0.699492
1308619830497,0.697789
1308619890497,0.708587
1308619950497,0.707197
1308620010497,0.705565
1308620070497,0.708072
1308620130497,0.703766
1308620190497,0.700526
1308620250497,0.714308
1308620310497,0.713238
1308620370497,0.705600
1308620430497,0.709533
1308620490497,0.708266
1308620550497,0.712459
1308620610497,0.710581
1308620670497,0.708246
1308620730497,0.713131
1308620790497,0.712301
1308620850497,0.709689
1308620910497,0.710324
1308620970497,0.709644
1308621030497,0.718365
1308621090497,0.713073
1308621150497,0.717388
1308621210497,0.716870
1308621270497,0.715251
1308621330497,0.723692
1308621390497,0.722063
1308621450497,0.723033
1308621510497,0.729540
1308621570497,0.724679
1308621630507,0.726619
1308621690507,0.728697
1308621750507,0.731901
1308621810507,0.738213
1308621870507,0.738550
1308621930507,0.744353
1308621990507,0.745822
1308622050507,0.738996
1308622110507,0.746664
1308622170507,0.744525
1308622230507,0.750208
1308622290507,0.756192
1308622350507,0.749494
1308622410507,0.757735
1308622470507,0.760740
1308622530507,0.762563
1308622590507,0.775075
1308622650507,0.775873
1308622710507,0.773723
1308622770507,0.775713
1308622830507,0.775485
1308622890507,0.774305
1308622950507,0.782426
1308623010507,0.787522
1308623070507,0.786952
1308623130507,0.782494
1308623190507,0.786124
1308623250507,0.794529
1308623310507,0.788084
1308623370507,0.799009
1308623430507,0.793825
1308623490507,0.796874
1308623550507,0.799668
1308623610507,0.803443
1308623670507,0.803275
1308623730507,0.813954
1308623790507,0.812242
1308623850507,0.815814
1308623910507,0.820642
1308623970507,0.823110
1308624030507,0.832232
1308624090507,0.836863
1308624150507,0.831353
1308624210507,0.839540
1308624270507,0.843741
1308624330507,0.850091
1308624390507,0.844287
1308624450507,0.851599
1308624510507,0.849703
1308624570507,0.853918
1308624630507,0.862637
1308624690507,0.865354
1308624750507,0.865022
1308624810507,0.875983
1308624870507,0.882631
1308624930507,0.894508
1308624990507,0.886466
1308625050507,0.891103
1308625110507,0.904789
1308625170507,0.903519
1308625230516,0.914603
1308625290516,0.920758
1308625350516,0.921059
1308625410516,0.934742
1308625470516,0.938562
1308625530516,0.938410
1308625590516,0.945486
1308625650516,0.943389
1308625710516,0.960350
1308625770516,0.960346
1308625830516,0.965715
1308625890516,0.967683
1308625950516,0.980613
1308626010516,0.985554
1308626070516,0.990060
1308626130516,1.00063
1308626190516,1.00676
1308626250516,1.00682
1308626310516,1.02058
1308626370516,1.03146
1308626430516,1.03010
1308626490516,1.03256
1308626550516,1.03581
1308626610516,1.03675
1308626670516,1.05444
1308626730516,1.05717
1308626790516,1.07042
1308626850516,1.06533
1308626910516,1.08105
1308626970516,1.08570
1308627030516,1.08243
1308627090516,1.08331
1308627150516,1.09490
1308627210516,1.08293
1308627270516,1.09268
1308627330516,1.09413
1308627390516,1.09114
1308627450516,1.10503
1308627510516,1.09962
1308627570516,1.09963
1308627630516,1.10234
1308627690516,1.10348
1308627750516,1.10397
1308627810516,1.09726
1308627870516,1.10500
1308627930516,1.10455
1308627990516,1.09312
1308628050516,1.09428
1308628110516,1.08659
1308628170516,1.09087
1308628230516,1.09684
1308628290516,1.08172
1308628350516,1.09159
1308628410516,1.08199
1308628470516,1.07290
1308628530516,1.07854
1308628590516,1.07036
1308628650516,1.06249
1308628710516,1.06907
1308628770516,1.06680
1308628830525,1.06747
1308628890525,1.05327
1308628950525,1.05523
1308629010525,1.04286
1308629070525,1.05758
1308629130525,1.04114
1308629190525,1.03803
1308629250525,1.03843
1308629310525,1.02603
1308629370525,1.02540
1308629430525,1.02010
1308629490525,1.01816
1308629550525,1.01320
1308629610525,1.01631
1308629670525,1.00638
1308629730525,1.00938
1308629790525,1.01409
1308629850525,0.998086
1308629910525,0.999980
1308629970525,0.992332
1308630030525,0.990990
1308630090525,0.996698
1308630150525,0.988018
1308630210525,0.982856
1308630270525,0.976990
1308630330525,0.973398
1308630390525,0.975844
1308630450525,0.964787
1308630510525,0.954556
1308630570525,0.954917
1308630630525,0.949739
1308630690525,0.946666
1308630750525,0.949613
1308630810525,0.948658
1308630870525,0.936576
1308630930525,0.934967
1308630990525,0.934964
1308631050525,0.934004
1308631110525,0.921722
1308631170525,0.930573
1308631230525,0.921449
1308631290525,0.920914
1308631350525,0.923629
1308631410525,0.920255
1308631470525,0.903529
1308631530525,0.913515
1308631590525,0.914102
1308631650525,0.910914
1308631710525,0.906687
1308631770525,0.905449
1308631830525,0.909881
1308631890525,0.903536
1308631950525,0.902824
1308632010525,0.904574
1308632070525,0.895018
1308632130525,0.897313
1308632190525,0.895918
1308632250525,0.886622
1308632310525,0.890297
1308632370525,0.884549
1308632430534,0.878240
1308632490534,0.877208
1308632550534,0.874334
1308632610534,0.871953
1308632670534,0.885662
1308632730534,0.868114
1308632790534,0.867719
1308632850534,0.872838
1308632910534,0.866709
1308632970534,0.863271
1308633030534,0.861689
1308633090534,0.863440
1308633150534,0.861243
1308633210534,0.853936
1308633270534,0.854519
1308633330534,0.851995
1308633390534,0.853949
1308633450534,0.862538
1308633510534,0.854029
1308633570534,0.845951
1308633630534,0.847144
1308633690534,0.841822
1308633750534,0.847018
1308633810534,0.845312
1308633870534,0.836372
1308633930534,0.839657
1308633990534,0.838618
1308634050534,0.844272
1308634110534,0.841477
1308634170534,0.837904
1308634230534,0.830270
1308634290534,0.840374
1308634350534,0.839064
1308634410534,0.834390
1308634470534,0.824868
1308634530534,0.826112
1308634590534,0.825715
1308634650534,0.816771
1308634710534,0.814995
1308634770534,0.818639
1308634830534,0.817187
1308634890534,0.817020
1308634950534,0.815035
1308635010534,0.817422
1308635070534,0.816571
1308635130534,0.808540
1308635190534,0.809985
1308635250534,0.808576
1308635310534,0.808378
1308635370534,0.802600
1308635430534,0.817534
1308635490534,0.804094
1308635550534,0.804061
1308635610534,0.804433
1308635670534,0.798131
1308635730534,0.803271
1308635790534,0.799124
1308635850534,0.797218
1308635910534,0.793265
1308635970534,0.795796
1308636030543,0.795362
1308636090543,0.797334
1308636150543,0.785634
1308636210543,0.794487
1308636270543,0.798889
1308636330543,0.791008
1308636390543,0.790580
1308636450543,0.778612
1308636510543,0.790765
1308636570543,0.790058
1308636630543,0.788987
1308636690543,0.789180
1308636750543,0.783349
1308636810543,0.782765
1308636870543,0.789387
1308636930543,0.782357
1308636990543,0.783332
1308637050543,0.770729
1308637110543,0.783854
1308637170543,0.774977
1308637230543,0.769181
1308637290543,0.764427
1308637350543,0.768087
1308637410543,0.771913
1308637470543,0.768104
1308637530543,0.769569
1308637590543,0.767186
1308637650543,0.762519
1308637710543,0.766745
1308637770543,0.764903
1308637830543,0.762490
1308637890543,0.768742
1308637950543,0.763701
1308638010543,0.757910
1308638070543,0.762836
1308638130543,0.763157
1308638190543,0.764179
1308638250543,0.763911
1308638310543,0.754307
1308638370543,0.755157
1308638430543,0.760247
1308638490543,0.760991
1308638550543,0.755989
1308638610543,0.758537
1308638670543,0.760680
1308638730543,0.755543
1308638790543,0.761934
1308638850543,0.755584
1308638910543,0.752193
1308638970543,0.750096
1308639030543,0.760486
1308639090543,0.752440
1308639150543,0.756807
1308639210543,0.746391
1308639270543,0.748355
1308639330543,0.746753
1308639390543,0.742456
1308639450543,0.754499
1308639510543,0.745719
1308639570543,0.744190
1308639630552,0.746582
1308639690552,0.744663
1308639750552,0.743309
1308639810552,0.743622
1308639870552,0.744727
1308639930552,0.741671
1308639990552,0.738041
1308640050552,0.740619
1308640110552,0.745492
1308640170552,0.743173
1308640230552,0.741960
1308640290552,0.743688
1308640350552,0.748528
1308640410552,0.737815
1308640470552,0.739281
1308640530552,0.741726
1308640590552,0.746590
1308640650552,0.736036
1308640710552,0.745427
1308640770552,0.739199
1308640830552,0.753491
1308640890552,0.736798
1308640950552,0.736655
1308641010552,0.737237
1308641070552,0.743656
1308641130552,0.732798
1308641190552,0.735927
1308641250552,0.738258
1308641310552,0.731250
1308641370552,0.729475
1308641430552,0.737556
1308641490552,0.737875
1308641550552,0.742296
1308641610552,0.730733
1308641670552,0.743123
1308641730552,0.735211
1308641790552,0.737981
1308641850552,0.734515
1308641910552,0.730716
1308641970552,0.735834
1308642030552,0.741893
1308642090552,0.730182
1308642150552,0.734933
1308642210552,0.729587
1308642270552,0.729956
1308642330552,0.727087
1308642390552,0.738057
1308642450552,0.735775
1308642510552,0.725962
1308642570552,0.731921
1308642630552,0.721462
1308642690552,0.725766
1308642750552,0.729653
1308642810552,0.729205
1308642870552,0.731628
1308642930552,0.722672
1308642990552,0.729633
1308643050552,0.727685
1308643110552,0.725190
1308643170552,0.728036
1308643230561,0.730400
1308643290561,0.732505
1308643350561,0.731325
1308643410561,0.718760
1308643470561,0.721955
1308643530561,0.725045
1308643590561,0.724188
1308643650561,0.724282
1308643710561,0.725931
1308643770561,0.727055
1308643830561,0.726545
1308643890561,0.719937
1308643950561,0.716365
1308644010561,0.722083
1308644070561,0.725133
1308644130561,0.730876
1308644190561,0.726369
1308644250561,0.727504
1308644310561,0.727534
1308644370561,0.722570
1308644430561,0.725560
1308644490561,0.724061
1308644550561,0.729971
1308644610561,0.722699
1308644670561,0.722918
1308644730561,0.727673
1308644790561,0.722951
1308644850561,0.727703
1308644910561,0.719751
1308644970561,0.720945
1308645030561,0.713364
1308645090561,0.725904
1308645150561,0.720247
1308645210561,0.719451
1308645270561,0.719582
1308645330561,0.722109
1308645390561,0.715676
1308645450561,0.719497
1308645510561,0.725180
1308645570561,0.715519
1308645630561,0.717492
1308645690561,0.713190
1308645750561,0.717376
1308645810561,0.718046
1308645870561,0.720721
1308645930561,0.719723
1308645990561,0.716690
1308646050561,0.714992
1308646110561,0.716152
1308646170561,0.707284
1308646230561,0.711202
1308646290561,0.721044
1308646350561,0.718678
1308646410561,0.713429
1308646470561,0.718678
1308646530561,0.714661
1308646590561,0.714203
1308646650561,0.722674
1308646710561,0.717824
1308646770561,0.714868
1308646830570,0.719596
1308646890570,0.709549
1308646950570,0.708883
1308647010570,0.714288
1308647070570,0.717268
1308647130570,0.710748
1308647190570,0.713867
1308647250570,0.705478
1308647310570,0.714044
1308647370570,0.712717
1308647430570,0.716702
1308647490570,0.717996
1308647550570,0.716417
1308647610570,0.712370
1308647670570,0.718746
1308647730570,0.709653
1308647790570,0.712479
1308647850570,0.709496
1308647910570,0.713781
1308647970570,0.709997
1308648030570,0.708444
1308648090570,0.704842
1308648150570,0.706567
1308648210570,0.703325
1308648270570,0.702129
1308648330570,0.711719
1308648390570,0.711666
1308648450570,0.707815
1308648510570,0.709304
1308648570570,0.707821
1308648630570,0.708490
1308648690570,0.712978
1308648750570,0.706176
1308648810570,0.706186
1308648870570,0.706034
1308648930570,0.702776
1308648990570,0.704873
1308649050570,0.700375
1308649110570,0.707082
1308649170570,0.704733
1308649230570,0.705330
1308649290570,0.710104
1308649350570,0.705000
1308649410570,0.707403
1308649470570,0.702803
1308649530570,0.704992
1308649590570,0.701548
1308649650570,0.708260
1308649710570,0.696850
1308649770570,0.705142
1308649830570,0.702919
1308649890570,0.701396
1308649950570,0.703009
1308650010570,0.695754
1308650070570,0.706432
1308650130570,0.707175
1308650190570,0.702605
1308650250570,0.701855
1308650310570,0.707283
1308650370570,0.705669
1308650430578,0.705591
1308650490578,0.695769
1308650550578,0.702093
1308650610578,0.698505
1308650670578,0.701588
1308650730578,0.694756
1308650790578,0.699733
1308650850578,0.707018
1308650910578,0.708757
1308650970578,0.707068
1308651030578,0.700534
1308651090578,0.701461
1308651150578,0.705631
1308651210578,0.697894
1308651270578,0.700180
1308651330578,0.698392
1308651390578,0.696303
1308651450578,0.702754
1308651510578,0.702633
1308651570578,0.699117
1308651630578,0.690880
1308651690578,0.698493
1308651750578,0.701845
1308651810578,0.700446
1308651870578,0.703287
1308651930578,0.702577
1308651990578,0.709491
1308652050578,0.701726
1308652110578,0.698767
1308652170578,0.703778
1308652230578,0.699530
1308652290578,0.697201
1308652350578,0.705177
1308652410578,0.701378
1308652470578,0.704872
1308652530578,0.703827
1308652590578,0.702207
1308652650578,0.700807
1308652710578,0.698254
1308652770578,0.701410
1308652830578,0.694850
1308652890578,0.698512
1308652950578,0.705737
1308653010578,0.696613
1308653070578,0.704465
1308653130578,0.695821
1308653190578,0.699371
1308653250578,0.695098
1308653310578,0.695996
1308653370578,0.697254
1308653430578,0.695182
1308653490578,0.695544
1308653550578,0.703125
1308653610578,0.697462
1308653670578,0.695528
1308653730578,0.694491
1308653790578,0.698105
1308653850578,0.701461
1308653910578,0.700576
1308653970578,0.696609
1308654030587,0.693780
1308654090587,0.692250
1308654150587,0.697918
1308654210587,0.697320
1308654270587,0.701878
1308654330587,0.695308
1308654390587,0.697072
1308654450587,0.698495
1308654510587,0.706262
1308654570587,0.706055
1308654630587,0.697475
1308654690587,0.696423
1308654750587,0.704083
1308654810587,0.694768
1308654870587,0.693922
1308654930587,0.700409
1308654990587,0.699505
1308655050587,0.701182
1308655110587,0.693458
1308655170587,0.694437
1308655230587,0.695870
1308655290587,0.698874
1308655350587,0.695832
1308655410587,0.693056
1308655470587,0.690777
1308655530587,0.698943
1308655590587,0.693605
1308655650587,0.693837
1308655710587,0.689022
1308655770587,0.695773
1308655830587,0.695336
1308655890587,0.694908
1308655950587,0.696782
1308656010587,0.695548
1308656070587,0.694359
1308656130587,0.694595
1308656190587,0.693467
1308656250587,0.694553
1308656310587,0.691931
1308656370587,0.692764
1308656430587,0.691562
1308656490587,0.687659
1308656550587,0.694523
1308656610587,0.687154
1308656670587,0.695836
1308656730587,0.689095
1308656790587,0.694359
1308656850587,0.696433
1308656910587,0.693606
1308656970587,0.694647
1308657030587,0.697245
1308657090587,0.691222
1308657150587,0.691930
1308657210587,0.691493
1308657270587,0.692365
1308657330587,0.700438
1308657390587,0.691430
1308657450587,0.690425
1308657510587,0.696360
1308657570587,0.693655
1308657630596,0.695898
1308657690596,0.704917
1308657750596,0.696215
1308657810596,0.695461
1308657870596,0.693401
1308657930596,0.696360
1308657990596,0.686732
1308658050596,0.692958
1308658110596,0.702689
1308658170596,0.696212
1308658230596,0.694794
1308658290596,0.691333
1308658350596,0.691286
1308658410596,0.689482
1308658470596,0.694475
1308658530596,0.698628
1308658590596,0.694061
1308658650596,0.701786
1308658710596,0.691457
1308658770596,0.693525
1308658830596,0.694383
1308658890596,0.693643
1308658950596,0.694164
1308659010596,0.695595
1308659070596,0.691913
1308659130596,0.693076
1308659190596,0.701008
1308659250596,0.694441
1308659310596,0.695977
1308659370596,0.694114
1308659430596,0.697306
1308659490596,0.694155
1308659550596,0.694493
1308659610596,0.692341
1308659670596,0.696219
1308659730596,0.694826
1308659790596,0.689826
1308659850596,0.688365
1308659910596,0.692869
1308659970596,0.690765
1308660030596,0.690823
1308660090596,0.691494
1308660150596,0.691231
1308660210596,0.691926
1308660270596,0.691879
1308660330596,0.692673
1308660390596,0.691450
1308660450596,0.694862
1308660510596,0.684455
1308660570596,0.681805
1308660630596,0.694561
1308660690596,0.689619
1308660750596,0.693828
1308660810596,0.686516
1308660870596,0.695145
1308660930596,0.695300
1308660990596,0.689806
1308661050596,0.695376
1308661110596,0.694205
1308661170596,0.690294
1308661230605,0.688164
1308661290605,0.690402
1308661350605,0.686570
1308661410605,0.690020
1308661470605,0.692775
1308661530605,0.711003
1308661590605,0.691356
1308661650605,0.691708
1308661710605,0.692881
1308661770605,0.689975
1308661830605,0.685203
1308661890605,0.690732
1308661950605,0.688793
1308662010605,0.689163
1308662070605,0.694738
1308662130605,0.693837
1308662190605,0.686197
1308662250605,0.685233
1308662310605,0.682433
1308662370605,0.690742
1308662430605,0.681571
1308662490605,0.688650
1308662550605,0.688307
1308662610605,0.692298
1308662670605,0.687485
1308662730605,0.691308
1308662790605,0.689136
1308662850605,0.696473
1308662910605,0.691070
1308662970605,0.684498
1308663030605,0.688752
1308663090605,0.699572
1308663150605,0.692149
1308663210605,0.682639
1308663270605,0.693096
1308663330605,0.687192
1308663390605,0.685768
1308663450605,0.693409
1308663510605,0.687130
1308663570605,0.690338
1308663630605,0.685547
1308663690605,0.684004
1308663750605,0.692939
1308663810605,0.687598
1308663870605,0.684264
1308663930605,0.691319
1308663990605,0.686576
1308664050605,0.684527
1308664110605,0.688312
1308664170605,0.690968
1308664230605,0.684679
1308664290605,0.686341
1308664350605,0.686307
1308664410605,0.686741
1308664470605,0.685877
1308664530605,0.691248
1308664590605,0.684138
1308664650605,0.688930
1308664710605,0.689481
1308664770605,0.693183
1308664830614,0.694767
1308664890614,0.690833
1308664950614,0.687328
1308665010614,0.687119
1308665070614,0.689534
1308665130614,0.692009
1308665190614,0.684180
1308665250614,0.684916
1308665310614,0.684302
1308665370614,0.685201
1308665430614,0.686035
1308665490614,0.694994
1308665550614,0.686875
1308665610614,0.684756
1308665670614,0.690849
1308665730614,0.689070
1308665790614,0.696738
1308665850614,0.699397
1308665910614,0.687137
1308665970614,0.692756
1308666030614,0.691414
1308666090614,0.690526
1308666150614,0.683669
1308666210614,0.688240
1308666270614,0.685818
1308666330614,0.690250
1308666390614,0.688325
1308666450614,0.692052
1308666510614,0.692728
1308666570614,0.685831
1308666630614,0.691190
1308666690614,0.687807
1308666750614,0.687263
1308666810614,0.688876
1308666870614,0.685127
1308666930614,0.693843
1308666990614,0.688925
1308667050614,0.697299
1308667110614,0.684545
1308667170614,0.684914
1308667230614,0.684520
1308667290614,0.690901
1308667350614,0.691011
1308667410614,0.687073
1308667470614,0.687630
1308667530614,0.688690
1308667590614,0.691173
1308667650614,0.686438
1308667710614,0.685905
1308667770614,0.684626
1308667830614,0.692311
1308667890614,0.692451
1308667950614,0.693555
1308668010614,0.683685
1308668070614,0.686099
1308668130614,0.685846
1308668190614,0.691450
1308668250614,0.683300
1308668310614,0.690574
1308668370614,0.686185
1308668430623,0.681424
1308668490623,0.688013
1308668550623,0.691901
1308668610623,0.690220
1308668670623,0.693656
1308668730623,0.687591
1308668790623,0.688440
1308668850623,0.685790
1308668910623,0.691534
1308668970623,0.692265
1308669030623,0.692229
1308669090623,0.688759
1308669630623,0.696119
1308669690623,0.677205
1308669750623,0.688891
1308669810623,0.686282
1308669870623,0.691004
1308669930623,0.692094
1308669990623,0.684362
1308670050623,0.681686
1308670110623,0.684854
1308670170623,0.681156
1308670230623,0.685401
1308670290623,0.683569
1308670350623,0.687085
1308670410623,0.684676
1308670470623,0.681953
1308670530623,0.685486
1308670590623,0.691920
1308670650623,0.684156
1308670710623,0.686670
1308670770623,0.688277
1308670830623,0.683768
1308670890623,0.683720
1308670950623,0.684848
1308671010623,0.691708
1308671070623,0.684851
1308671130623,0.684722
1308671190623,0.686804
1308671250623,0.684194
1308671310623,0.688563
1308671370623,0.685683
1308671430623,0.679775
1308671490623,0.685948
1308671550623,0.686956
1308671610623,0.684055
1308671670623,0.682138
1308671730623,0.688658
1308671790623,0.683342
1308671850623,0.685094
1308671910623,0.688002
1308671970623,0.683228
1308672030632,0.686507
1308672090632,0.681940
1308672150632,0.679383
1308672210632,0.684925
1308672270632,0.684254
1308672330632,0.686711
1308672390632,0.684103
1308672450632,0.680555
1308672510632,0.685979
1308672570632,0.685769
1308672630632,0.685133
1308672690632,0.682244
1308672750632,0.683135
1308672810632,0.677649
1308672870632,0.680262
1308672930632,0.683160
1308672990632,0.687174
1308673050632,0.680320
1308673110632,0.690425
1308673170632,0.682045
1308673230632,0.676515
1308673290632,0.687002
1308673350632,0.675029
1308673410632,0.676621
1308673470632,0.679739
1308673530632,0.680238
1308673590632,0.677119
1308673650632,0.685036
1308673710632,0.674416
1308673770632,0.677961
1308673830632,0.678761
1308673890632,0.684736
1308673950632,0.683718
1308674010632,0.681346
1308674070632,0.681844
1308674130632,0.682802
1308674190632,0.679689
1308674250632,0.686831
1308674310632,0.692601
1308674370632,0.687718
1308674430632,0.682404
1308674490632,0.684120
1308674550632,0.678559
1308674610632,0.677712
1308674670632,0.685041
1308674730632,0.677546
1308674790632,0.686768
1308674850632,0.687392
1308674910632,0.681686
1308674970632,0.678189
1308675030632,0.686258
1308675090632,0.688517
1308675150632,0.683584
1308675210632,0.683615
1308675270632,0.681017
1308675330632,0.680258
1308675390632,0.682151
1308675450632,0.680551
1308675510632,0.678158
1308675570632,0.684846
1308675630642,0.683556
1308675690642,0.683207
1308675750642,0.686310
1308675810642,0.685094
1308675870642,0.682467
1308675930642,0.690146
1308675990642,0.678613
1308676050642,0.683265
1308676110642,0.684921
1308676170642,0.681390
1308676230642,0.678937
1308676290642,0.682205
1308676350642,0.681559
1308676410642,0.680925
1308676470642,0.677892
1308676530642,0.683463
1308676590642,0.680140
1308676650642,0.680227
1308676710642,0.681090
1308676770642,0.679333
1308676830642,0.678428
1308676890642,0.677090
1308676950642,0.675412
1308677010642,0.677381
1308677070642,0.678229
1308677130642,0.683605
1308677190642,0.681460
1308677250642,0.689059
1308677310642,0.676479
1308677370642,0.685199
1308677430642,0.679304
1308677490642,0.676986
1308677550642,0.680087
1308677610642,0.678382